Date_and_time,latitude,longitude,wind_speed,RelWindDirFrom,WindDirFrom,air_pressure,air_temperature,relative_humidity,Temp,platform_speed_wrt_ground,air_pressure_at_mean_sea_level,platform_orientation
2019-02-11 00:00,50.6304483333333,-96.9807716666667,3.7,4.5,350,1004.39,-22.7,75,0.43,0.0,1035.22,234.7
2019-02-11 00:10,50.6304483333333,-96.9807733333333,4.1,4.8,356,1004.33,-22.5,74,0.44,0.0,1035.18,234.7
2019-02-11 00:20,50.6304466666667,-96.98077,4.3,4.9,351,1004.25,-22.6,74,0.44,0.0,1035.10,234.7
2019-02-11 00:30,50.6304483333333,-96.98077,3.6,4.2,354,1004.20,-22.5,73,0.45,0.0,1035.05,234.7
2019-02-11 00:40,50.63046,-96.98077,3.9,4.6,353,1004.12,-22.3,73,0.45,0.0,1034.98,234.7
2019-02-11 00:50,50.630455,-96.980765,4.0,4.8,356,1004.00,-22.4,73,0.45,0.0,1034.87,234.7
2019-02-11 01:00,50.6304333333333,-96.9807516666667,4.7,5.1,358,1003.90,-22.7,73,0.45,0.0,1034.78,138.8
2019-02-11 01:10,50.63045,-96.98077,3.5,4.7,355,1003.88,-22.9,74,0.45,0.0,1034.79,138.8
2019-02-11 01:20,50.630445,-96.9807683333333,1.4,2.8,336,1003.84,-22.7,74,0.45,0.0,1034.76,138.8
2019-02-11 01:30,50.6304466666667,-96.98077,3.2,4.3,339,1003.72,-22.5,74,0.45,0.0,1034.64,138.8
2019-02-11 01:40,50.6304466666667,-96.9807716666667,3.8,4.6,347,1003.65,-22.7,74,0.45,0.0,1034.57,138.8
2019-02-11 01:50,50.6304466666667,-96.98077,3.9,4.6,344,1003.57,-22.3,73,0.45,0.0,1034.45,138.8
2019-02-11 02:00,50.6304483333333,-96.9807716666667,4.5,5.2,351,1003.46,-22.0,72,0.45,0.0,1034.31,90.0
2019-02-11 02:10,50.6304483333333,-96.98077,5.2,6.0,353,1003.27,-22.0,72,0.44,0.0,1034.12,90.0
2019-02-11 02:20,50.6304483333333,-96.9807683333333,5.3,6.3,352,1003.15,-21.9,71,0.43,0.0,1033.98,90.0
2019-02-11 02:30,50.6304466666667,-96.9807666666667,4.5,5.4,353,1003.11,-21.6,71,0.42,0.0,1033.91,90.0
2019-02-11 02:40,50.6304516666667,-96.98078,4.6,5.7,355,1003.08,-21.5,70,0.43,0.0,1033.87,90.0
2019-02-11 02:50,50.63045,-96.9807766666667,4.4,5.9,353,1003.12,-21.4,70,0.44,0.0,1033.94,90.0
2019-02-11 03:00,50.6304566666667,-96.980745,4.1,5.2,348,1003.21,-21.5,70,0.44,0.0,1034.04,73.2
2019-02-11 03:10,50.6304583333333,-96.98078,3.8,4.6,343,1003.29,-21.2,70,0.44,0.0,1034.09,73.2
2019-02-11 03:20,50.6304633333333,-96.9807683333333,3.5,5.1,344,1003.34,-21.0,69,0.45,0.0,1034.13,73.2
2019-02-11 03:30,50.6304533333333,-96.980765,2.2,2.9,334,1003.40,-21.0,69,0.45,0.0,1034.20,73.2
2019-02-11 03:40,50.6304483333333,-96.9807633333333,2.6,3.5,340,1003.33,-21.0,69,0.45,0.0,1034.11,73.2
2019-02-11 03:50,50.6304483333333,-96.9807633333333,0.8,2.1,348,1003.37,-21.4,69,0.45,0.0,1034.15,73.2
2019-02-11 04:00,50.6304483333333,-96.980765,0.4,1.4,232,1003.42,-23.5,71,0.45,0.0,1034.33,327.5
2019-02-11 04:10,50.6304483333333,-96.980765,0.5,1.3,218,1003.40,-24.0,75,0.45,0.0,1034.33,327.5
2019-02-11 04:20,50.63045,-96.980765,0.0,0.0,0,1003.27,-23.6,75,0.45,0.0,1034.15,327.5
2019-02-11 04:30,50.6304516666667,-96.9807666666667,0.6,2.5,29,1003.22,-23.7,74,0.46,0.0,1034.10,327.5
2019-02-11 04:40,50.6304633333333,-96.9807866666667,1.8,2.2,10,1003.13,-24.6,74,0.46,0.0,1034.06,327.5
2019-02-11 04:50,50.630445,-96.9807716666667,3.0,4.4,2,1003.04,-24.1,76,0.46,0.0,1033.94,327.5
2019-02-11 05:00,50.6304483333333,-96.9807683333333,5.2,6.4,4,1002.93,-23.5,75,0.46,0.0,1033.77,90.0
2019-02-11 05:10,50.6304483333333,-96.9807683333333,5.9,6.6,356,1002.83,-23.2,74,0.46,0.0,1033.64,90.0
2019-02-11 05:20,50.63045,-96.9807683333333,5.5,6.1,356,1002.79,-22.9,73,0.46,0.0,1033.58,90.0
2019-02-11 05:30,50.6304483333333,-96.980765,4.9,5.3,357,1002.76,-22.8,72,0.45,0.0,1033.55,90.0
2019-02-11 05:40,50.6304533333333,-96.9807816666667,4.6,5.6,358,1002.68,-22.8,72,0.45,0.0,1033.48,90.0
2019-02-11 05:50,50.6304533333333,-96.9807766666667,4.3,5.1,359,1002.63,-22.8,72,0.45,0.0,1033.56,90.0
2019-02-11 06:00,50.6304533333333,-96.98078,4.4,5.1,357,1002.61,-22.8,72,0.45,0.0,1033.57,270.0
2019-02-11 06:10,50.6304533333333,-96.9807783333333,4.3,4.9,354,1002.62,-22.8,72,0.46,0.0,1033.56,270.0
2019-02-11 06:20,50.630455,-96.9807766666667,4.7,5.3,350,1002.64,-22.9,72,0.46,0.0,1033.59,270.0
2019-02-11 06:30,50.6304366666667,-96.9807716666667,4.3,5.2,355,1002.50,-22.8,72,0.45,0.0,1033.50,270.0
2019-02-11 06:40,50.6304483333333,-96.9807783333333,4.6,5.4,355,1002.30,-22.8,72,0.45,0.0,1033.26,270.0
2019-02-11 06:50,50.6304483333333,-96.9807766666667,4.9,6.2,360,1002.20,-22.7,72,0.44,0.0,1033.12,270.0
2019-02-11 07:00,50.6304483333333,-96.9807766666667,5.4,6.6,357,1002.19,-22.6,72,0.44,0.0,1033.08,270.0
2019-02-11 07:10,50.6304483333333,-96.9807766666667,5.2,6.2,355,1002.10,-22.6,72,0.44,0.0,1032.97,270.0
2019-02-11 07:20,50.630465,-96.9807883333333,5.5,6.6,354,1002.00,-22.7,71,0.45,0.0,1032.86,270.0
2019-02-11 07:30,50.6304283333333,-96.9807416666667,6.0,7.3,358,1001.86,-22.7,71,0.45,0.0,1032.72,270.0
2019-02-11 07:40,50.6304366666667,-96.9807483333333,6.0,7.0,0,1001.74,-22.8,72,0.46,0.0,1032.60,270.0
2019-02-11 07:50,50.6304416666667,-96.980755,5.7,7.0,357,1001.72,-22.8,71,0.46,0.0,1032.58,270.0
2019-02-11 08:00,50.6304433333333,-96.98076,6.2,7.3,359,1001.58,-22.8,71,0.46,0.0,1032.44,167.4
2019-02-11 08:10,50.630445,-96.9807616666667,6.8,7.9,3,1001.47,-23.0,71,0.46,0.0,1032.34,167.4
2019-02-11 08:20,50.630445,-96.9807633333333,7.6,9.3,6,1001.41,-23.1,71,0.47,0.0,1032.29,167.4
2019-02-11 08:30,50.6304483333333,-96.9807633333333,7.6,9.1,4,1001.44,-23.3,71,0.47,0.0,1032.33,167.4
2019-02-11 08:40,50.6304483333333,-96.9807616666667,7.3,8.8,1,1001.53,-23.4,72,0.46,0.0,1032.42,167.4
2019-02-11 08:50,50.6304516666667,-96.9807633333333,7.1,8.6,359,1001.52,-23.5,72,0.46,0.0,1032.41,167.4
2019-02-11 09:00,50.630455,-96.9807616666667,6.7,8.3,359,1001.43,-23.6,72,0.46,0.0,1032.33,90.0
2019-02-11 09:10,50.6304533333333,-96.9807616666667,6.9,7.8,5,1001.34,-23.7,72,0.45,0.0,1032.24,90.0
2019-02-11 09:20,50.6304566666667,-96.9807616666667,6.9,8.1,6,1001.22,-23.8,72,0.45,0.0,1032.12,90.0
2019-02-11 09:30,50.6304583333333,-96.9807633333333,6.4,8.2,3,1001.11,-23.8,72,0.42,0.0,1032.02,90.0
2019-02-11 09:40,50.6304583333333,-96.9807616666667,6.2,8.1,3,1001.02,-23.8,72,0.41,0.0,1031.92,90.0
2019-02-11 09:50,50.6304583333333,-96.98077,6.9,8.1,4,1000.80,-23.7,72,0.41,0.0,1031.69,90.0
2019-02-11 10:00,50.6304616666667,-96.9807716666667,7.0,8.4,6,1000.70,-23.8,73,0.42,0.0,1031.60,360.0
2019-02-11 10:10,50.6304566666667,-96.980765,7.1,8.5,4,1000.60,-23.8,73,0.42,0.0,1031.51,360.0
2019-02-11 10:20,50.6304616666667,-96.9807616666667,6.1,7.4,3,1000.51,-23.7,73,0.43,0.0,1031.43,360.0
2019-02-11 10:30,50.63046,-96.980765,6.0,7.5,5,1000.40,-23.5,73,0.44,0.0,1031.31,360.0
2019-02-11 10:40,50.63046,-96.9807666666667,6.6,8.1,8,1000.22,-23.4,73,0.44,0.0,1031.12,360.0
2019-02-11 10:50,50.6304616666667,-96.9807683333333,7.2,8.8,5,1000.03,-23.4,73,0.44,0.0,1030.93,360.0
2019-02-11 11:00,50.63046,-96.9807683333333,7.4,8.3,6,999.92,-23.3,73,0.44,0.0,1030.82,360.0
2019-02-11 11:10,50.6304583333333,-96.98077,7.3,8.9,5,999.81,-23.1,74,0.44,0.0,1030.69,360.0
2019-02-11 11:20,50.63045,-96.9807566666667,7.0,8.3,7,999.72,-22.8,74,0.44,0.0,1030.59,360.0
2019-02-11 11:30,50.630465,-96.980745,6.8,8.0,5,999.56,-22.8,74,0.44,0.0,1030.42,360.0
2019-02-11 11:40,50.6304516666667,-96.9807666666667,6.8,8.4,3,999.43,-22.7,74,0.44,0.0,1030.27,360.0
2019-02-11 11:50,50.6304516666667,-96.9807716666667,6.2,7.8,3,999.42,-22.6,74,0.44,0.0,1030.26,360.0
2019-02-11 12:00,50.6304466666667,-96.9807733333333,6.5,7.5,6,999.37,-22.4,74,0.44,0.0,1030.20,240.8
2019-02-11 12:10,50.6304466666667,-96.9807733333333,5.7,7.1,5,999.37,-22.5,74,0.44,0.0,1030.20,240.8
2019-02-11 12:20,50.6304466666667,-96.9807716666667,5.7,7.0,7,999.30,-22.5,75,0.44,0.0,1030.12,240.8
2019-02-11 12:30,50.6304466666667,-96.9807716666667,5.9,6.9,5,999.30,-22.5,75,0.44,0.0,1030.11,240.8
2019-02-11 12:40,50.6304466666667,-96.9807716666667,5.8,6.9,2,999.28,-22.6,75,0.43,0.0,1030.09,240.8
2019-02-11 12:50,50.6304766666667,-96.9807766666667,5.2,6.2,3,999.29,-22.6,75,0.43,0.0,1030.09,240.8
2019-02-11 13:00,50.6304616666667,-96.9807833333333,4.0,4.8,360,999.27,-22.6,75,0.43,0.0,1030.07,270.0
2019-02-11 13:10,50.6304583333333,-96.9807733333333,3.9,4.5,352,999.19,-22.5,75,0.44,0.0,1029.96,270.0
2019-02-11 13:20,50.630455,-96.9807733333333,3.5,4.0,348,999.17,-22.3,75,0.44,0.0,1029.93,270.0
2019-02-11 13:30,50.6304516666667,-96.98077,3.5,4.5,357,999.12,-22.2,75,0.45,0.0,1029.86,270.0
2019-02-11 13:40,50.630455,-96.9807666666667,4.3,4.8,5,999.06,-22.4,75,0.45,0.0,1029.81,270.0
2019-02-11 13:50,50.6304533333333,-96.9807666666667,5.1,5.9,8,999.01,-22.6,76,0.44,0.0,1029.75,270.0
2019-02-11 14:00,50.6304533333333,-96.9807666666667,6.0,6.9,7,998.91,-22.7,76,0.44,0.0,1029.66,360.0
2019-02-11 14:10,50.6304433333333,-96.98076,6.3,7.1,9,998.89,-22.7,75,0.44,0.0,1029.64,360.0
2019-02-11 14:20,50.630445,-96.9807533333333,6.8,7.7,8,998.76,-22.6,75,0.44,0.0,1029.51,360.0
2019-02-11 14:30,50.6304466666667,-96.9807566666667,7.2,8.2,7,998.65,-22.6,75,0.45,0.0,1029.39,360.0
2019-02-11 14:40,50.63045,-96.9807583333333,6.3,7.5,5,998.66,-22.4,74,0.45,0.0,1029.40,360.0
2019-02-11 14:50,50.63045,-96.98076,5.8,7.0,3,998.71,-22.3,73,0.45,0.0,1029.44,360.0
2019-02-11 15:00,50.6304516666667,-96.98076,6.0,7.2,2,998.59,-22.2,73,0.45,0.0,1029.30,54.7
2019-02-11 15:10,50.630455,-96.980765,6.5,7.5,2,998.52,-22.1,72,0.45,0.0,1029.21,54.7
2019-02-11 15:20,50.6304533333333,-96.98077,6.2,7.4,5,998.49,-22.0,71,0.45,0.0,1029.17,54.7
2019-02-11 15:30,50.630445,-96.98076,5.5,6.5,4,998.54,-21.9,71,0.45,0.0,1029.22,54.7
2019-02-11 15:40,50.6304566666667,-96.9807633333333,5.2,6.4,2,998.53,-21.7,70,0.45,0.0,1029.22,54.7
2019-02-11 15:50,50.63045,-96.9807666666667,4.8,5.9,5,998.55,-21.4,70,0.45,0.0,1029.22,54.7
2019-02-11 16:00,50.6304466666667,-96.9807633333333,4.8,5.6,8,998.61,-21.1,69,0.45,0.0,1029.26,148.9
2019-02-11 16:10,50.6304483333333,-96.9807666666667,4.5,5.8,10,998.59,-21.0,69,0.45,0.0,1029.23,148.9
2019-02-11 16:20,50.6304483333333,-96.9807666666667,5.0,6.1,9,998.60,-20.7,69,0.45,0.0,1029.23,148.9
2019-02-11 16:30,50.6304466666667,-96.9807666666667,4.9,5.7,2,998.55,-20.6,69,0.45,0.0,1029.16,148.9
2019-02-11 16:40,50.6304483333333,-96.9807683333333,4.7,5.6,8,998.46,-20.5,69,0.45,0.0,1029.05,148.9
2019-02-11 16:50,50.6304483333333,-96.98077,4.6,5.8,8,998.40,-20.3,69,0.45,0.0,1028.97,148.9
2019-02-11 17:00,50.6304483333333,-96.98077,4.7,5.6,3,998.31,-20.3,71,0.45,0.0,1028.87,142.0
2019-02-11 17:10,50.6304483333333,-96.98077,5.4,6.4,10,998.21,-19.9,71,0.45,0.0,1028.74,142.0
2019-02-11 17:20,50.63045,-96.98077,6.2,7.5,4,998.09,-19.8,72,0.45,0.0,1028.60,142.0
2019-02-11 17:30,50.6304516666667,-96.98078,5.6,6.8,5,998.07,-19.3,71,0.45,0.0,1028.54,142.0
2019-02-11 17:40,50.63045,-96.9807783333333,6.1,7.0,11,997.93,-18.6,70,0.45,0.0,1028.33,142.0
2019-02-11 17:50,50.6304483333333,-96.9807716666667,6.1,7.4,9,997.92,-18.5,71,0.45,0.0,1028.30,142.0
2019-02-11 18:00,50.6304516666667,-96.9807733333333,5.3,6.0,13,998.00,-18.6,72,0.45,0.0,1028.38,270.0
2019-02-11 18:10,50.6304516666667,-96.9807716666667,4.5,5.8,11,997.92,-18.1,72,0.45,0.0,1028.25,270.0
2019-02-11 18:20,50.6304433333333,-96.9807866666667,4.6,5.5,10,997.75,-17.9,73,0.45,0.0,1028.06,270.0
2019-02-11 18:30,50.6304533333333,-96.9807783333333,6.8,8.5,9,997.51,-17.9,74,0.45,0.0,1027.80,270.0
2019-02-11 18:40,50.63045,-96.980775,7.4,8.5,7,997.31,-17.6,75,0.45,0.0,1027.56,270.0
2019-02-11 18:50,50.6304433333333,-96.98078,5.8,7.8,6,997.20,-17.4,76,0.44,0.0,1027.44,270.0
2019-02-11 19:00,50.6304466666667,-96.98078,5.7,6.7,11,997.07,-17.2,77,0.44,0.0,1027.27,270.0
2019-02-11 19:10,50.6304466666667,-96.9807783333333,5.5,6.7,13,996.98,-16.7,77,0.44,0.0,1027.14,270.0
2019-02-11 19:20,50.63045,-96.9807766666667,5.7,6.6,14,996.86,-16.0,75,0.44,0.0,1026.94,270.0
2019-02-11 19:30,50.6304583333333,-96.9807816666667,5.2,6.9,5,996.63,-15.7,75,0.44,0.0,1026.65,270.0
2019-02-11 19:40,50.6304516666667,-96.9807666666667,5.3,6.6,5,996.46,-15.7,74,0.45,0.0,1026.47,270.0
2019-02-11 19:50,50.6304516666667,-96.9807683333333,4.5,6.1,1,996.39,-15.2,73,0.45,0.0,1026.38,270.0
2019-02-11 20:00,50.6304533333333,-96.9807683333333,4.0,5.1,2,996.36,-14.6,72,0.45,0.0,1026.27,38.0
2019-02-11 20:10,50.6304466666667,-96.9807583333333,3.8,4.7,7,996.32,-13.9,71,0.46,0.0,1026.18,38.0
2019-02-11 20:20,50.63045,-96.9807583333333,2.7,3.8,2,996.29,-13.5,70,0.46,0.0,1026.13,38.0
2019-02-11 20:30,50.6304316666667,-96.9807483333333,1.5,2.6,339,996.27,-13.1,68,0.46,0.0,1026.07,38.0
2019-02-11 20:40,50.63045,-96.98075,2.2,2.9,354,996.15,-13.1,69,0.46,0.0,1025.93,38.0
2019-02-11 20:50,50.630445,-96.9807516666667,2.4,3.0,11,996.04,-13.6,73,0.46,0.0,1025.83,38.0
2019-02-11 21:00,50.6304466666667,-96.9807566666667,3.0,3.7,5,995.93,-13.7,73,0.47,0.0,1025.70,125.3
2019-02-11 21:10,50.6304466666667,-96.9807583333333,3.4,4.2,5,995.90,-13.6,73,0.47,0.0,1025.62,125.3
2019-02-11 21:20,50.6304383333333,-96.980755,4.1,5.1,1,995.84,-13.7,74,0.47,0.0,1025.54,125.3
2019-02-11 21:30,50.6304433333333,-96.9807616666667,4.5,5.5,357,995.76,-13.9,74,0.47,0.0,1025.48,125.3
2019-02-11 21:40,50.6304483333333,-96.9807633333333,4.4,5.0,357,995.77,-13.9,74,0.47,0.0,1025.46,125.3
2019-02-11 21:50,50.63045,-96.9807633333333,4.3,5.2,355,995.75,-14.2,76,0.46,0.0,1025.42,125.3
2019-02-11 22:00,50.6304466666667,-96.9807666666667,3.8,4.5,348,995.78,-14.4,76,0.47,0.0,1025.42,90.0
2019-02-11 22:10,50.630455,-96.9807716666667,3.9,4.5,356,995.81,-14.5,77,0.47,0.0,1025.43,90.0
2019-02-11 22:20,50.6304383333333,-96.9807766666667,4.2,4.7,352,995.85,-14.7,77,0.48,0.0,1025.46,90.0
2019-02-11 22:30,50.6304433333333,-96.9807733333333,4.4,5.2,353,995.89,-14.6,78,0.48,0.0,1025.50,90.0
2019-02-11 22:40,50.630445,-96.9807716666667,4.6,5.3,351,995.90,-14.5,79,0.48,0.0,1025.54,90.0
2019-02-11 22:50,50.630445,-96.98077,4.9,5.9,355,995.93,-14.5,79,0.48,0.0,1025.57,90.0
2019-02-11 23:00,50.630445,-96.98077,5.0,5.9,356,995.97,-14.4,80,0.48,0.0,1025.60,360.0
2019-02-11 23:10,50.630445,-96.9807716666667,4.7,5.6,356,995.91,-14.4,81,0.48,0.0,1025.55,360.0
2019-02-11 23:20,50.6304466666667,-96.9807716666667,4.5,5.1,353,995.90,-14.3,81,0.48,0.0,1025.54,360.0
2019-02-11 23:30,50.6304466666667,-96.9807716666667,4.6,5.5,356,995.92,-14.2,80,0.48,0.0,1025.55,360.0
2019-02-11 23:40,50.6304466666667,-96.98077,4.9,5.8,1,995.86,-14.1,81,0.48,0.0,1025.50,360.0
